Location: Choisy
(48.7685°N, 2.4187°E)
Time: 03:23:31
(UTC+00:00)

BlueWalker 3 - Pass Details

Date: 28 February 2024
Orbit: 485 x 495 km, 53.2° (Epoch: 24 April)

Event Time Altitude Azimuth Distance (km) Brightness Sun altitude
Rises 20:12:20 0° 295° (WNW) 2,561 6.8 -26.9°
Reaches altitude 10° 20:14:31 10° 293° (WNW) 1,675 5.6 -27.3°
Enters shadow 20:16:40 31° 283° (WNW) 865 3.6 -27.6°
